[[{"header":{"parameterUnit":"m.s-1","parameterCategory":1,"la1":30.2992,"la2":30.254,"lo1":-89.0895,"lo2":-89.0443,"dy":0.0025,"dx":0.0025,"nx":19,"ny":19,"refTime":"2026-03-09T21:00:00:Z","depth":0,"parameterNumber":2,"parameterNumberName":"U-component_of_WINDS"},"data":[0,0,0,-1.327,-1.3271,-1.3295,-1.3295,-1.3326,-1.3326,0,0,0,0,0,0,0,0,0,0,0,-1.3263,-1.3263,-1.327,-1.3271,-1.3295,-1.3295,-1.3326,-1.3326,0,0,0,0,0,0,0,0,0,0,0,-1.3262,-1.3263,-1.3263,-1.3271,-1.3295,-1.3295,-1.3326,-1.3308,0,0,0,0,0,0,0,0,0,0,-1.3284,-1.3276,-1.3263,-1.3263,-1.3271,-1.3295,-1.3296,-1.3307,-1.3309,-1.3315,0,-1.3319,0,-1.3323,-1.3328,-1.3328,0,0,0,-1.3272,-1.3275,-1.3282,-1.3263,-1.3271,-1.3295,-1.3285,-1.3308,-1.331,-1.3317,-1.332,-1.3321,-1.3324,-1.3329,-1.3329,-1.3358,-1.3358,0,0,-1.327,-1.3267,-1.328,-1.3283,-1.3279,-1.3284,-1.3285,-1.331,-1.3312,-1.332,-1.3321,-1.3324,-1.3329,-1.3329,-1.3357,-1.3358,0,0,0,-1.3266,-1.3266,-1.3272,-1.3282,-1.3286,-1.3284,-1.3286,-1.3311,-1.3313,-1.3322,-1.3325,-1.3329,-1.3329,-1.3357,-1.3357,-1.3358,0,0,0,-1.3265,-1.3263,-1.3272,-1.327,-1.3286,-1.3299,-1.3287,-1.3312,-1.3314,-1.3324,-1.3329,-1.333,-1.3357,-1.3357,-1.3358,-1.3359,0,0,0,-1.3261,-1.3263,-1.3266,-1.3269,-1.328,-1.3298,-1.3302,-1.3312,-1.3316,-1.3328,-1.333,-1.3357,-1.3357,-1.3358,-1.3359,-1.3365,0,0,0,-1.3256,-1.3267,-1.3266,-1.3279,-1.3279,-1.3299,-1.3302,-1.3317,-1.3328,-1.3329,-1.3357,-1.3357,-1.3358,-1.3358,-1.3365,-1.3369,-1.3371,0,0,-1.3267,-1.3268,-1.3276,-1.3276,-1.3294,-1.3295,-1.3314,-1.3328,-1.3333,-1.3349,-1.335,-1.3358,-1.3359,-1.3365,-1.3382,-1.3383,0,0,0,-1.3278,-1.3284,-1.329,-1.3299,-1.331,-1.3319,-1.333,-1.3335,-1.3349,-1.334,-1.3362,-1.3363,-1.3367,-1.3369,-1.337,-1.3373,-1.3358,-1.3358,-1.3358,-1.3289,-1.3294,-1.3308,-1.3316,-1.3325,-1.3337,-1.3345,-1.3354,-1.3357,-1.3362,-1.3367,-1.3376,-1.3379,-1.338,-1.3383,-1.337,-1.337,-1.337,-1.337,-1.3306,-1.3315,-1.3318,-1.3332,-1.3338,-1.335,-1.3362,-1.3363,-1.3376,-1.3373,-1.3377,-1.3374,-1.3381,-1.3384,-1.337,-1.337,-1.337,-1.337,-1.337,-1.3313,-1.3318,-1.3324,-1.3338,-1.3348,-1.3357,-1.3368,-1.3373,-1.3378,-1.3382,-1.3387,-1.3387,-1.3387,-1.3384,-1.3384,-1.3384,-1.3384,-1.3384,-1.3384,-1.3318,-1.3324,-1.3333,-1.3345,-1.3351,-1.3361,-1.3372,-1.3379,-1.3388,-1.3391,-1.3391,-1.3393,-1.3381,-1.3377,-1.3385,-1.3385,-1.3385,-1.3385,-1.3385,-1.3332,-1.333,-1.3343,-1.3349,-1.3363,-1.3373,-1.338,-1.3393,-1.34,-1.3405,-1.3407,-1.3397,-1.3398,-1.3397,-1.3394,-1.3406,-1.3406,-1.3406,-1.3406,-1.3338,-1.3339,-1.3353,-1.3363,-1.3374,-1.3381,-1.3396,-1.3405,-1.3414,-1.3418,-1.3418,-1.3414,-1.3413,-1.3415,-1.3414,-1.3411,-1.3427,-1.3427,-1.3427,-1.3346,-1.3348,-1.336,-1.3368,-1.3379,-1.3389,-1.3403,-1.3415,-1.3425,-1.3428,-1.3422,-1.3421,-1.3416,-1.3414,-1.3416,-1.3414,-1.3409,0,0]},{"header":{"parameterUnit":"m.s-1","parameterCategory":1,"la1":30.2992,"la2":30.254,"lo1":-89.0895,"lo2":-89.0443,"dy":0.0025,"dx":0.0025,"nx":19,"ny":19,"refTime":"2026-03-09T21:00:00:Z","depth":0,"parameterNumber":3,"parameterNumberName":"V-component_of_WINDS"},"data":[0,0,0,4.0112,4.0116,4.0273,4.0274,4.0471,4.0473,0,0,0,0,0,0,0,0,0,0,0,4.006,4.0062,4.0112,4.0116,4.0273,4.0274,4.0471,4.0473,0,0,0,0,0,0,0,0,0,0,0,4.006,4.0061,4.0063,4.0117,4.0273,4.0274,4.0471,4.0354,0,0,0,0,0,0,0,0,0,0,4.0202,4.0148,4.0061,4.0063,4.0117,4.0273,4.0274,4.0348,4.0361,4.0397,0,4.0426,0,4.0452,4.0486,4.0486,0,0,0,4.012,4.0137,4.0184,4.0063,4.0119,4.0273,4.0204,4.0355,4.037,4.0414,4.0429,4.0436,4.0456,4.0487,4.0488,4.0679,4.0679,0,0,4.0112,4.0086,4.0174,4.0193,4.0166,4.0199,4.0208,4.0364,4.0379,4.0429,4.0441,4.0459,4.0488,4.049,4.0678,4.0679,0,0,0,4.0084,4.008,4.0124,4.0185,4.0214,4.0203,4.0214,4.0372,4.0388,4.0443,4.0461,4.0489,4.0492,4.0677,4.0678,4.0689,0,0,0,4.0079,4.0064,4.012,4.0106,4.021,4.0294,4.0218,4.0378,4.0396,4.046,4.0489,4.0493,4.0676,4.0678,4.0687,4.0698,0,0,0,4.0052,4.0061,4.0081,4.0104,4.017,4.0292,4.0318,4.0382,4.0407,4.0486,4.0494,4.0676,4.0678,4.0685,4.0695,4.0743,0,0,0,4.0016,4.0087,4.0081,4.0167,4.0169,4.0296,4.0317,4.0413,4.0482,4.049,4.0677,4.0678,4.0684,4.0694,4.0741,4.078,4.0793,0,0,4.0091,4.0095,4.0148,4.0147,4.0269,4.0274,4.0399,4.0487,4.0518,4.0624,4.0629,4.0687,4.0695,4.0743,4.0872,4.0882,0,0,0,4.0163,4.0201,4.0239,4.0303,4.0372,4.0433,4.0504,4.0537,4.0629,4.0566,4.0717,4.0723,4.0752,4.0772,4.0781,4.0809,4.0686,4.0685,4.0685,4.0233,4.0269,4.0361,4.0417,4.048,4.0554,4.061,4.0668,4.0685,4.072,4.0752,4.0826,4.0849,4.0855,4.0884,4.0774,4.0774,4.0774,4.0774,4.0348,4.0409,4.0433,4.053,4.0569,4.0652,4.0728,4.0739,4.0824,4.0804,4.0832,4.0809,4.0865,4.0893,4.0775,4.0775,4.0775,4.0775,4.0775,4.04,4.0436,4.0475,4.0574,4.0648,4.0703,4.0784,4.0817,4.0848,4.0875,4.0916,4.0916,4.0922,4.0892,4.0892,4.0892,4.0892,4.0893,4.0893,4.0439,4.0482,4.0546,4.0627,4.0675,4.0742,4.082,4.0868,4.0931,4.0949,4.095,4.0967,4.0863,4.0838,4.0897,4.0896,4.0896,4.0895,4.0895,4.0546,4.0527,4.0625,4.0674,4.0774,4.0847,4.0887,4.0985,4.103,4.107,4.1082,4.0999,4.1005,4.0999,4.0979,4.1071,4.1071,4.1071,4.1071,4.0591,4.0598,4.0708,4.0783,4.0861,4.0908,4.1023,4.1086,4.1148,4.1179,4.117,4.1145,4.1137,4.1149,4.1139,4.1121,4.1247,4.1247,4.1248,4.0661,4.0677,4.0767,4.0826,4.0907,4.0978,4.1088,4.1176,4.1243,4.1256,4.1205,4.1198,4.1158,4.1142,4.1155,4.1138,4.1106,0,0]}]]